Theta_e
314 314 313 313 313 313 313 313 313 313 313 313 312 311 312 312 313 315 317 320 322 324 325 326 326 326 326 326 326 326 326 326 326 326 326 326 325 325 325 325 324 324 324 324 324 324 324 324 323 323 323 323 322 322 322 322 321 320 319 318 318 318 318 318 318 319 319 319 319 319 319 319 319 319 319 319 320 320 320 320 320 320 320 319 319
314 314 313 313 313 313 313 313 313 313 313 312 312 311 311 310 311 313 315 316 319 322 324 324 325 325 325 325 325 325 326 326 326 326 326 325 326 325 325 325 324 324 324 324 324 324 324 324 324 324 324 323 323 323 323 322 322 322 321 320 319 319 319 318 318 318 319 319 319 319 319 319 319 319 319 319 320 320 320 320 320 320 320 319 318
313 313 313 313 313 313 313 313 313 312 312 311 311 311 310 309 309 309 311 313 315 319 321 323 324 325 325 325 325 325 325 325 325 325 325 325 325 325 325 325 325 324 324 324 324 324 324 324 324 324 324 323 323 323 323 322 322 322 322 321 320 319 319 319 318 318 318 319 319 319 319 319 319 319 320 319 319 319 319 320 320 319 319 318 317
313 313 313 313 313 313 312 313 312 311 311 311 310 310 310 310 309 308 308 309 311 314 317 320 322 323 324 324 324 325 324 324 325 325 325 325 325 325 325 325 325 325 324 324 324 324 323 323 323 323 323 323 323 323 323 322 322 322 322 321 321 320 320 319 318 318 318 318 318 318 318 319 319 319 319 319 319 318 317 317 317 316 316 316 315
313 313 313 313 313 313 312 311 311 310 310 309 309 310 309 309 309 308 308 308 308 309 312 315 318 320 322 323 324 324 324 324 324 324 325 325 324 325 325 324 325 324 324 324 324 323 323 323 323 323 323 323 322 322 322 322 322 321 321 321 320 320 320 320 319 318 318 317 318 318 319 318 318 318 319 319 319 318 316 315 314 312 313 314 314
313 312 312 312 311 311 310 309 308 308 308 308 307 308 308 308 308 308 308 307 307 307 308 310 314 317 319 321 322 323 324 324 324 324 324 324 324 324 324 324 324 324 324 324 324 324 323 323 323 323 323 322 322 322 322 322 322 321 321 320 320 320 320 320 319 319 318 319 319 319 318 317 317 317 317 318 317 316 315 314 311 311 311 311 311
311 310 310 309 308 307 307 306 306 306 306 306 306 306 306 306 307 307 307 307 307 307 307 307 309 313 317 319 321 321 322 323 323 324 324 324 324 323 324 324 324 324 324 324 324 323 323 324 324 323 323 323 322 322 322 321 321 321 321 320 320 320 320 319 319 319 318 318 318 318 317 316 314 313 314 315 313 310 309 307 306 308 309 308 308
308 308 307 306 306 306 305 305 305 305 305 305 305 305 305 305 306 306 306 306 306 306 306 306 307 308 311 314 317 319 321 321 322 322 323 323 323 323 323 323 323 323 323 323 323 323 323 323 324 323 323 323 323 323 322 322 321 321 321 320 320 320 319 319 319 318 318 317 316 317 316 314 312 310 309 308 306 305 306 305 304 308 309 307 307
307 306 306 305 305 305 304 305 304 305 305 305 304 304 304 304 305 305 305 305 305 305 305 306 306 306 307 308 311 313 316 318 320 321 321 321 322 322 322 322 323 323 323 323 323 323 323 323 323 323 323 323 323 323 323 322 322 321 320 320 319 319 319 319 318 317 316 315 314 314 313 311 309 308 305 303 304 307 309 306 304 307 308 305 305
305 305 305 305 304 304 304 304 304 304 304 304 304 303 304 304 304 304 304 304 304 304 304 305 305 305 305 305 306 307 309 311 313 316 318 320 320 321 321 322 322 322 322 322 322 323 323 323 323 323 323 323 323 323 323 323 322 322 321 320 319 319 318 317 316 315 314 313 312 313 312 310 309 307 305 306 308 309 308 306 304 304 304 301 302
305 304 303 303 303 303 303 304 304 305 304 304 303 303 303 304 304 304 304 304 304 303 303 304 304 304 304 304 304 304 304 305 306 308 312 316 318 319 319 320 321 322 322 322 322 322 322 322 322 322 322 322 322 322 322 322 322 322 321 320 320 319 318 317 315 314 314 313 313 313 312 311 310 310 308 308 309 307 306 306 304 302 300 300 302
304 303 303 302 302 302 303 303 304 304 304 303 303 303 303 303 303 303 303 303 303 303 303 303 303 303 303 303 303 303 303 303 303 304 305 309 313 315 316 316 317 319 320 321 321 322 321 322 322 321 321 321 321 322 322 321 321 321 320 319 319 319 319 318 317 316 314 313 312 312 311 311 311 311 310 309 308 307 306 305 303 302 300 299 301
302 302 302 301 301 301 301 302 303 303 303 303 302 303 303 303 303 302 302 303 303 303 303 302 302 302 302 303 303 302 302 302 302 302 302 303 305 308 310 311 312 313 316 317 319 320 320 319 319 319 320 319 319 320 319 319 319 318 318 319 319 319 318 318 317 317 316 315 313 312 312 312 311 311 313 313 310 307 305 302 301 301 300 300 302
299 299 299 299 299 300 300 301 301 301 302 302 302 302 302 302 302 301 301 302 302 302 302 302 301 301 301 301 301 301 302 302 302 302 301 301 301 302 303 304 305 308 310 313 315 316 317 317 317 317 317 317 317 317 316 317 318 318 318 317 318 319 319 318 317 317 317 316 314 313 314 313 313 314 315 314 312 309 307 304 303 302 300 301 301
296 295 296 296 296 297 298 299 300 300 301 301 301 302 301 301 301 300 300 301 301 301 301 300 300 300 300 299 300 300 300 301 301 301 301 300 300 300 299 299 300 302 304 306 309 312 313 315 316 316 316 316 316 316 316 316 317 317 316 316 316 317 317 317 316 316 316 316 315 315 314 314 314 315 315 314 314 313 311 309 307 304 301 299 298
294 293 293 294 294 294 295 296 297 298 299 300 301 301 301 300 299 299 299 300 300 300 300 299 299 299 299 299 298 299 299 299 299 299 299 298 298 297 297 297 298 298 300 301 303 306 308 310 312 313 314 315 314 314 315 315 315 315 315 315 315 315 315 316 315 315 316 316 315 315 315 314 314 313 314 314 314 314 311 307 305 302 299 297 296
293 293 293 292 293 293 293 293 294 295 296 297 298 299 299 300 299 298 298 299 299 299 299 299 298 298 298 298 298 298 299 299 298 298 297 297 296 295 295 296 297 297 298 299 300 301 303 305 307 308 310 311 312 313 313 314 314 314 313 313 312 312 313 314 314 314 315 315 314 314 314 313 312 312 313 313 313 312 308 302 301 299 297 297 296
293 293 292 292 292 292 292 292 292 293 293 294 295 296 297 297 298 297 296 297 298 299 298 299 299 298 297 298 297 297 298 298 298 298 298 296 295 295 295 296 296 297 298 298 299 300 300 301 303 304 305 306 307 309 310 311 312 312 311 311 310 310 310 311 312 313 314 313 312 313 311 311 311 311 312 311 310 310 307 303 302 299 297 299 297
292 292 292 292 292 292 292 292 291 292 292 292 292 293 294 294 295 295 296 296 297 298 298 298 299 299 298 297 297 297 297 298 298 298 298 297 296 296 296 296 296 297 297 298 298 299 299 300 301 301 302 303 304 305 306 307 309 310 310 309 308 308 310 310 311 312 312 311 311 312 311 311 311 311 311 310 308 308 307 306 305 301 299 299 296
292 292 291 291 291 291 291 291 291 291 291 291 292 292 292 293 293 294 294 295 295 297 297 298 299 300 299 297 297 297 297 297 297 297 297 297 296 296 296 296 296 296 297 297 297 298 298 299 300 300 301 301 302 303 304 305 306 307 308 307 307 308 309 310 310 311 311 310 311 311 310 310 310 309 308 307 306 306 306 306 305 303 302 300 296
292 291 291 291 291 291 291 290 290 290 290 290 291 291 291 292 292 292 293 294 294 295 296 296 298 300 300 298 297 297 296 296 297 297 296 296 296 296 296 296 296 297 297 297 297 297 298 298 299 299 300 301 302 303 303 304 305 305 306 306 306 307 308 308 309 309 309 309 308 307 306 306 305 306 305 305 305 305 305 304 304 303 303 301 298
291 290 290 290 290 290 290 290 289 289 289 289 289 290 290 291 291 291 292 292 293 293 294 295 295 297 299 298 297 297 296 296 296 296 296 296 296 296 297 296 297 297 297 296 296 297 297 298 298 298 299 299 300 301 301 302 303 304 305 306 307 308 308 308 307 306 306 306 306 304 303 302 302 302 303 303 304 304 304 303 303 302 302 302 301
290 290 289 289 289 289 289 289 289 288 288 289 289 289 289 289 290 290 291 291 292 292 292 293 293 294 296 297 297 296 296 296 295 295 295 295 296 296 296 296 296 297 297 296 296 297 297 297 297 297 297 298 298 298 299 300 301 302 303 304 306 306 307 306 305 304 304 304 303 301 300 300 299 300 301 302 302 302 302 302 301 300 300 300 301
289 289 288 288 289 289 289 288 288 288 288 288 288 288 288 288 289 289 290 290 290 291 291 292 292 292 293 294 295 295 295 295 295 295 295 295 295 296 296 296 296 296 296 296 296 296 296 296 296 297 297 297 297 297 297 298 299 300 301 302 303 304 304 303 302 302 302 301 299 298 299 299 298 299 300 300 299 299 299 298 297 297 298 298 297
288 288 288 288 288 288 288 287 287 287 287 286 287 287 287 288 288 289 289 289 290 290 290 291 291 291 291 292 293 293 294 294 294 294 294 294 295 295 295 294 294 294 294 295 295 296 296 296 296 296 296 296 296 296 296 297 298 300 301 301 302 302 301 301 300 300 299 299 298 298 298 298 298 299 299 297 297 296 295 295 294 293 294 293 293
287 287 287 288 288 288 287 286 286 286 285 285 285 286 286 287 288 288 288 289 289 290 290 290 291 291 291 291 292 292 292 293 293 293 294 294 293 293 293 292 293 293 293 294 294 294 295 295 295 296 296 296 296 296 296 296 297 299 300 300 301 301 300 300 300 299 298 298 298 298 298 298 297 297 296 295 294 294 293 292 291 290 290 290 290
287 287 287 287 287 286 286 285 285 285 284 284 284 285 285 286 287 287 288 288 289 289 289 290 290 290 290 291 291 291 292 292 292 293 293 293 292 292 292 292 292 292 293 293 293 294 294 294 295 295 295 295 295 295 296 296 297 298 299 300 300 301 300 300 300 299 298 298 298 298 297 297 296 294 293 293 293 292 292 291 290 288 288 289 288
286 286 286 286 285 284 284 284 283 283 283 283 283 284 284 285 285 286 287 288 288 289 289 289 290 290 290 290 291 291 291 291 292 292 292 292 292 292 292 292 292 292 292 292 293 293 293 294 294 294 294 294 294 295 295 296 297 297 298 299 299 299 299 298 298 298 298 298 297 297 296 295 294 292 292 291 290 290 290 290 290 288 287 288 286
285 284 284 284 283 283 282 282 282 282 282 282 282 282 283 284 285 285 286 287 288 288 288 289 289 290 290 290 290 291 291 291 291 292 292 292 292 292 291 291 291 291 292 292 292 292 292 293 293 294 294 294 294 294 294 295 295 296 297 298 298 297 297 297 296 296 297 296 296 296 294 293 292 290 289 289 288 287 287 288 288 287 286 286 285
282 282 281 281 281 281 280 280 281 281 281 281 281 282 282 282 283 284 285 286 287 288 288 289 289 289 289 290 290 290 290 291 291 291 291 291 292 291 291 291 291 291 291 292 292 291 292 293 293 293 294 294 294 294 294 294 294 295 295 296 296 296 296 296 296 296 296 295 295 295 293 292 290 288 287 287 286 285 284 285 286 285 284 284 282
279 279 279 279 279 279 279 279 280 280 281 281 281 281 281 281 282 283 284 286 286 287 287 288 288 288 288 289 289 289 290 290 290 291 291 291 291 291 291 291 292 291 291 291 291 291 291 292 293 293 293 294 293 294 294 294 294 294 294 294 295 295 295 295 295 295 295 294 294 294 292 291 290 288 287 287 286 284 283 283 284 284 283 282 281
278 278 278 278 278 278 279 279 280 280 280 280 280 280 280 281 281 282 283 284 285 285 286 286 287 287 288 288 288 289 289 289 290 290 290 290 290 290 291 291 291 291 291 291 291 291 291 292 293 293 293 293 294 294 294 294 294 294 294 293 293 294 294 295 296 295 294 293 293 293 292 291 290 289 288 287 286 284 283 282 283 283 282 281 280
277 277 277 277 278 278 278 279 279 279 279 279 280 280 280 281 281 281 282 282 283 284 285 285 286 287 287 287 288 288 288 289 289 289 289 289 290 290 290 291 291 291 291 291 291 291 291 292 292 293 293 293 293 293 294 294 294 294 294 293 293 293 294 295 295 294 293 293 293 292 291 291 290 289 288 287 286 284 283 282 282 282 281 280 278
277 277 277 277 278 278 278 278 278 278 278 278 279 279 280 280 281 281 281 282 282 283 284 285 285 286 286 286 287 287 288 288 288 288 288 289 289 290 290 290 290 290 291 291 290 291 291 291 292 292 293 293 293 293 293 293 294 294 293 293 294 294 294 294 293 293 292 292 292 292 291 290 290 289 287 286 285 284 283 282 282 282 280 279 278
277 277 277 277 277 277 277 277 277 277 277 277 278 278 279 280 280 281 281 282 282 283 283 284 284 285 285 286 286 286 286 286 287 287 288 288 289 290 290 290 290 290 290 290 290 291 291 291 292 292 292 293 293 293 293 293 293 293 293 293 293 293 293 293 292 292 292 292 291 291 291 290 289 289 287 286 285 284 283 282 282 282 280 279 278
275 275 275 275 275 275 275 275 275 275 276 276 277 277 278 279 280 280 281 282 282 283 283 283 283 284 284 285 285 285 286 286 286 286 287 287 288 289 290 290 290 290 290 290 290 290 291 291 291 292 292 292 292 293 293 293 293 293 293 293 293 293 293 293 292 292 291 291 291 290 290 289 289 288 287 286 285 284 283 282 282 281 280 279 278
273 273 273 273 273 273 273 273 273 274 274 275 276 277 277 278 279 280 281 281 282 282 283 283 283 283 283 283 284 285 285 285 285 285 286 286 288 289 289 290 290 290 290 290 290 290 290 291 291 291 291 292 292 292 292 293 293 293 293 293 293 293 293 293 292 292 291 291 290 290 289 289 288 287 287 286 284 283 283 282 282 281 280 279 278
271 271 271 271 271 271 271 271 272 273 273 274 275 276 277 278 278 279 280 280 281 281 282 282 282 283 283 283 284 284 283 283 283 284 285 286 286 288 289 289 289 289 289 290 290 290 290 290 290 291 291 291 291 292 292 292 292 293 293 293 293 292 292 292 292 292 291 290 290 289 289 288 287 287 286 285 284 283 282 282 281 280 280 279 278
269 269 269 269 269 269 270 270 271 272 273 273 274 275 276 277 277 278 278 279 280 280 281 281 281 282 282 282 281 281 281 282 283 284 284 285 286 287 287 288 288 288 289 289 289 289 289 289 290 290 290 291 291 291 291 292 292 292 292 292 292 292 292 292 291 290 290 289 289 288 288 287 286 286 285 285 284 283 282 281 281 280 279 278 278
267 267 267 267 268 269 269 270 271 271 272 273 273 274 275 275 276 277 277 278 279 279 280 280 280 280 279 279 280 280 281 281 282 282 283 283 284 284 285 285 286 286 287 286 286 286 286 286 286 287 287 288 289 290 291 291 291 291 292 292 292 292 291 291 291 290 289 289 288 288 287 286 285 284 284 284 283 282 282 281 280 280 279 278 278
265 265 266 267 268 269 269 270 270 271 271 272 272 272 273 274 275 276 277 277 278 278 278 278 278 278 278 278 278 278 278 278 279 280 280 281 281 282 282 282 282 282 282 281 281 281 281 281 282 282 284 285 286 288 289 289 290 290 291 291 291 291 291 290 290 289 289 288 288 287 286 285 284 283 283 283 282 282 281 280 280 279 279 278 278
265 265 266 267 268 268 269 269 269 270 270 271 271 272 272 274 275 276 276 276 276 276 277 277 277 277 277 276 276 276 276 277 277 278 278 279 279 278 278 278 277 277 277 276 276 277 277 278 278 279 280 282 284 285 286 287 288 289 289 290 290 290 290 289 289 289 288 287 287 286 285 284 284 283 282 282 281 281 280 280 279 279 278 278 277
265 265 266 266 267 268 268 268 269 269 270 270 271 272 273 274 275 275 275 275 275 275 276 275 275 274 274 274 274 273 274 274 274 275 275 275 274 273 273 273 273 273 273 273 273 274 274 275 275 276 278 279 281 282 283 284 285 286 287 288 288 288 288 288 288 287 287 286 286 285 284 283 283 282 281 281 280 280 280 279 279 278 278 277 276
265 265 266 266 267 267 268 268 269 270 270 271 272 272 273 273 274 274 273 273 273 273 273 273 272 272 272 271 271 271 271 271 271 271 271 271 270 270 270 270 270 270 271 271 272 272 272 273 273 274 275 277 278 279 280 281 282 283 284 286 287 287 287 287 287 286 286 285 285 284 283 282 282 281 281 280 280 279 279 278 278 278 277 276 275
265 265 266 266 267 268 268 269 269 270 271 271 272 272 272 272 272 272 271 271 271 271 271 270 270 269 269 269 269 269 269 269 268 268 268 268 267 267 268 268 268 269 269 270 270 271 271 271 272 272 274 275 276 277 278 279 280 281 282 283 284 285 285 286 286 285 285 284 284 283 282 281 281 280 280 279 279 279 278 278 277 277 276 275 275
266 266 266 267 267 268 269 269 269 269 269 269 270 269 270 270 269 269 269 268 268 268 268 268 267 267 267 267 267 267 267 266 266 266 266 266 265 266 266 267 267 268 268 269 269 270 270 270 271 271 272 273 274 275 276 276 278 279 280 281 281 282 283 284 284 284 284 284 283 282 281 281 280 280 279 279 279 278 278 277 277 276 276 275 275
265 266 267 267 267 267 267 267 267 267 267 267 267 267 267 267 266 266 266 266 266 266 266 265 265 265 265 265 265 265 265 265 265 264 264 264 264 265 266 266 267 267 268 268 269 269 269 270 270 270 271 271 272 273 274 274 275 277 278 279 279 280 281 282 282 282 283 283 282 282 281 280 279 279 278 278 278 278 277 277 276 276 275 275 274
265 265 266 266 266 266 266 266 266 266 265 266 265 265 265 265 265 264 264 264 264 264 264 264 264 264 264 264 264 264 264 264 264 264 264 264 264 264 264 265 265 265 266 267 267 268 269 269 270 270 271 271 271 272 273 273 274 275 275 276 277 278 279 280 280 280 281 281 281 280 280 279 278 278 278 277 277 277 276 276 276 275 275 274 274
265 265 265 265 265 265 265 265 265 264 264 264 264 264 264 264 264 264 264 263 263 263 263 263 263 263 263 263 264 264 264 264 264 264 264 265 265 265 265 265 265 265 265 265 266 266 267 268 268 269 270 271 271 271 272 272 273 273 274 274 275 276 277 278 278 279 279 279 279 279 278 278 277 277 277 276 276 276 276 275 275 275 274 274 273
264 264 264 264 264 264 264 264 264 264 263 264 264 263 263 263 263 263 263 263 263 262 263 262 262 262 263 263 263 263 263 263 263 263 264 264 264 265 265 266 266 266 266 266 266 266 266 267 267 267 268 268 269 270 271 271 272 272 272 273 274 274 275 276 276 277 277 277 277 277 277 276 276 276 275 275 275 275 275 274 274 274 273 273 272
263 263 263 263 263 263 263 263 263 263 263 263 263 262 262 262 262 262 262 262 262 262 262 262 262 262 262 262 262 262 263 263 263 263 263 263 263 264 264 265 265 266 266 267 267 267 267 267 267 267 267 267 267 268 268 269 270 271 272 273 273 274 274 274 275 275 275 276 276 276 276 275 275 274 274 274 274 273 273 273 273 273 272 272 272
Wind_Speed
8 9 10 10 13 15 17 21 24 25 25 25 24 24 25 26 27 28 29 31 32 33 34 35 36 36 37 37 37 38 38 38 38 38 39 40 40 41 41 40 41 41 40 40 40 39 39 39 40 40 38 38 37 36 36 37 37 36 35 35 34 33 32 26 17 17 22 25 24 24 24 23 24 26 28 29 29 30 33 34 34 37 40 41 41
11 12 12 13 14 16 19 23 25 26 26 26 26 26 25 26 26 27 28 29 30 31 33 34 35 36 36 37 37 37 38 38 38 38 38 39 39 40 40 39 40 41 40 40 41 40 39 39 39 38 37 38 38 37 37 37 36 36 35 34 34 34 33 31 24 18 19 24 26 26 26 25 26 28 29 31 31 32 35 36 36 38 41 42 41
13 13 14 16 17 18 21 23 25 25 26 26 26 26 26 26 25 26 26 27 28 29 31 32 34 35 36 37 37 37 38 38 38 38 38 38 39 40 40 40 40 40 40 41 41 39 38 38 38 38 36 37 38 38 38 38 37 37 36 35 35 35 35 35 31 22 19 23 26 28 28 28 29 30 30 31 32 34 36 37 37 39 40 41 41
15 15 17 18 19 20 22 24 24 24 24 25 26 26 26 26 26 26 25 25 26 27 28 30 31 33 34 35 36 36 37 37 37 38 38 39 39 40 40 39 40 40 40 41 40 38 38 38 38 37 36 36 37 37 37 37 37 37 37 36 35 35 34 35 35 31 26 22 21 24 26 28 29 30 29 29 32 34 36 36 37 39 39 39 39
15 16 18 19 21 22 23 24 24 24 24 25 26 26 26 27 27 26 26 25 25 25 26 27 28 31 33 34 35 35 36 37 37 38 38 38 39 40 39 39 40 40 41 41 40 38 38 38 39 38 36 36 37 36 36 35 35 35 36 36 35 34 34 33 34 33 29 24 23 25 27 28 28 29 30 31 32 33 35 36 36 36 36 37 37
14 17 18 19 21 22 23 23 23 24 25 25 26 26 26 26 26 26 25 25 25 25 25 26 26 28 30 31 33 34 35 36 37 37 38 38 38 39 39 39 39 40 40 40 39 39 39 39 40 38 36 37 37 37 36 35 34 34 34 34 33 33 33 33 33 33 31 30 31 30 28 28 29 29 30 33 33 32 33 34 33 34 34 34 35
15 17 17 19 20 21 21 21 22 23 24 25 25 26 25 25 25 25 24 24 25 25 25 26 26 26 28 29 30 32 33 34 35 36 37 37 37 37 37 37 38 39 39 39 39 39 39 40 40 39 38 39 38 37 36 35 34 34 34 34 33 32 32 31 30 29 29 30 30 27 26 25 26 26 27 30 30 29 27 24 25 30 33 34 34
16 17 17 17 18 18 19 19 20 21 22 23 25 25 26 26 25 25 24 24 24 23 23 25 25 26 26 27 28 29 30 32 33 34 35 36 35 36 36 36 37 37 38 39 38 38 39 40 41 41 41 41 41 40 38 36 34 34 35 35 34 33 32 30 29 29 29 28 27 27 25 22 20 20 20 21 21 22 25 24 24 29 32 32 34
17 17 17 16 16 17 18 19 20 21 21 22 23 24 25 26 26 26 26 25 24 23 22 22 24 25 26 27 27 27 28 30 30 31 33 34 34 35 35 35 36 37 37 38 38 39 40 41 42 42 42 42 42 42 42 41 38 36 35 34 34 34 33 32 30 29 27 24 23 23 20 17 19 19 18 19 21 25 27 26 28 30 28 26 29
14 14 15 15 16 17 18 19 20 20 21 21 21 22 23 24 25 26 26 26 25 24 23 22 22 24 25 26 27 26 27 27 28 28 29 30 32 34 35 35 35 35 36 37 37 38 38 39 40 41 41 43 43 44 45 44 42 39 39 38 36 34 32 30 28 27 23 19 21 21 15 14 20 23 23 26 29 28 25 24 27 28 22 17 20
13 13 13 14 15 17 18 19 20 20 21 22 21 22 22 23 24 24 24 25 24 24 24 24 24 24 24 26 26 26 26 25 25 26 27 27 28 30 32 34 35 36 36 36 36 37 37 37 38 39 39 40 42 43 44 44 44 45 47 47 43 39 35 31 29 28 25 21 23 23 17 16 22 26 26 28 29 28 28 27 26 23 18 12 10
11 12 13 14 15 17 18 19 20 20 21 22 23 23 23 23 22 23 23 23 23 23 24 24 24 24 24 25 26 26 26 25 24 24 25 25 26 27 29 30 30 32 34 34 34 34 33 34 36 37 37 38 39 40 41 41 43 45 48 49 48 47 45 42 37 33 28 26 25 25 23 23 24 24 26 28 29 30 30 28 26 24 20 15 12
9 11 12 14 16 17 19 19 20 20 21 22 23 23 24 24 23 23 23 22 22 23 23 23 24 23 24 25 26 26 25 24 24 23 24 24 25 27 30 31 30 31 31 31 31 31 31 32 33 33 33 34 35 37 37 37 40 42 43 44 46 48 48 48 46 42 37 33 30 30 31 29 27 28 30 32 31 29 27 27 28 27 24 22 24
9 12 13 14 16 17 19 20 20 21 21 22 23 23 24 24 24 23 23 23 23 23 23 23 23 23 23 24 26 27 26 25 24 23 23 23 23 24 28 30 32 34 34 33 32 32 34 34 35 37 36 34 35 37 38 39 39 39 39 40 43 46 46 46 47 46 45 42 38 38 38 35 34 36 36 34 33 31 29 31 32 31 29 27 26
12 14 15 16 17 18 19 20 20 21 22 22 23 23 24 24 24 24 24 24 24 24 24 24 24 24 24 24 26 27 26 25 24 23 23 23 24 24 25 27 29 32 34 34 33 34 35 33 33 35 35 35 35 35 35 36 35 35 36 37 39 41 42 44 44 45 47 48 48 47 45 41 41 41 37 34 34 35 36 36 34 31 28 22 16
15 17 18 19 19 19 19 19 20 21 22 22 23 24 24 25 25 25 25 25 25 25 24 24 24 25 25 24 25 27 26 24 24 24 23 23 23 23 24 25 27 29 30 30 31 33 34 32 31 32 33 35 35 34 33 33 35 37 38 39 39 40 43 44 42 42 45 47 48 50 49 46 43 40 37 35 35 37 35 29 26 24 19 13 11
17 19 20 21 21 20 20 19 20 20 21 22 23 24 24 26 25 25 27 28 28 27 27 26 25 25 25 24 24 26 26 24 22 22 22 20 20 20 21 24 26 28 29 28 28 30 31 30 31 32 34 35 33 32 31 32 34 36 37 38 37 39 41 40 38 41 44 44 44 46 47 46 42 38 38 36 36 36 29 22 21 22 17 10 8
19 21 22 23 23 21 20 20 20 20 21 21 21 22 23 25 25 25 26 28 29 28 28 28 28 25 25 24 23 24 26 23 20 19 18 17 17 19 20 22 25 26 28 28 28 28 29 29 28 30 33 35 33 31 31 30 31 34 35 33 32 35 38 36 35 39 41 40 41 42 43 43 41 39 38 36 34 34 30 27 27 26 20 12 8
20 22 24 24 24 23 22 21 20 21 21 21 21 22 23 24 25 25 25 26 28 28 28 29 30 28 25 23 22 22 23 22 18 17 17 16 16 17 18 21 24 26 26 28 28 27 27 27 26 27 29 32 32 31 30 30 31 33 33 30 30 35 37 32 32 37 38 37 39 40 40 41 40 39 38 36 33 34 34 34 33 29 24 18 14
21 23 25 26 26 25 24 23 23 22 22 22 22 22 23 24 25 26 26 26 27 28 28 28 30 30 27 25 23 21 20 20 18 16 16 16 15 16 17 20 23 25 26 26 27 27 26 25 25 25 27 28 29 28 27 28 30 33 33 30 31 34 34 30 31 35 36 37 38 37 37 36 34 33 33 32 31 33 34 36 35 34 31 24 20
21 23 25 26 26 26 25 25 25 25 24 24 24 23 23 23 24 25 27 27 28 29 29 28 29 30 28 26 24 21 18 18 17 17 16 16 15 15 17 19 22 24 26 26 25 26 26 25 25 25 26 27 28 27 27 28 29 33 35 34 35 36 34 32 33 32 32 33 34 33 31 29 27 28 28 29 30 33 34 35 36 37 35 30 26
23 25 26 26 25 25 25 26 27 27 27 25 26 26 25 23 23 24 25 26 27 29 30 29 29 31 30 28 25 22 19 17 17 17 16 16 15 15 16 18 19 22 26 27 25 25 26 26 27 26 26 27 28 28 29 29 30 34 36 37 38 38 36 35 34 30 28 29 29 28 26 24 24 25 27 28 31 33 34 36 36 35 35 34 30
24 25 26 25 25 24 24 26 27 28 28 28 27 28 27 25 23 22 22 24 26 28 28 27 27 30 32 30 26 23 21 19 19 19 18 16 15 14 15 17 17 19 24 27 26 27 28 28 28 28 28 29 30 30 30 31 32 34 36 36 37 37 37 36 33 28 26 26 25 24 23 24 24 25 27 29 31 32 33 34 35 34 33 32 30
24 24 24 23 23 23 24 25 26 27 27 28 29 29 29 28 26 24 22 22 24 25 26 25 24 25 28 31 29 25 22 21 21 20 19 17 15 14 15 16 17 19 22 26 27 28 28 28 29 29 28 29 30 31 31 31 31 33 34 34 35 35 33 31 28 25 24 23 22 22 24 25 25 25 27 28 28 29 30 30 30 30 30 29 27
24 24 23 23 23 23 24 25 25 25 25 26 27 28 29 29 28 26 24 23 23 24 24 23 22 22 25 28 29 27 24 21 21 21 18 16 15 15 17 19 21 21 23 26 27 28 28 29 29 29 28 28 28 29 29 28 28 29 30 31 31 32 30 27 24 22 22 22 21 22 24 25 25 25 26 25 24 25 26 26 26 25 24 24 22
24 24 24 23 23 24 25 25 25 25 26 26 26 26 26 26 27 26 24 23 22 23 24 23 21 21 23 25 28 28 25 21 21 20 17 15 17 19 22 24 24 24 25 27 28 28 28 28 29 29 29 28 27 27 28 27 26 27 28 29 29 29 27 25 24 23 22 22 22 22 23 23 22 22 22 22 24 25 26 26 24 22 21 21 19
23 23 23 23 23 23 24 26 27 27 28 28 27 27 25 25 25 25 23 22 23 23 23 22 20 19 22 24 27 28 25 21 20 19 17 19 23 24 25 25 26 26 26 27 28 29 29 30 30 30 29 28 26 24 24 24 24 26 27 28 28 28 27 26 26 26 25 23 22 22 21 19 19 20 21 22 24 27 28 29 28 26 24 24 20
21 21 22 22 23 23 23 24 26 27 28 27 26 26 25 24 24 25 23 22 23 23 23 22 20 20 22 24 26 28 26 20 17 19 21 25 28 28 27 26 26 26 27 28 30 31 31 31 30 28 26 24 23 22 21 20 21 23 25 26 26 26 26 25 24 25 25 23 20 19 18 17 19 21 22 23 24 26 28 30 30 30 30 28 23
19 20 22 23 24 25 25 24 25 25 26 25 24 24 23 22 23 27 26 23 22 24 26 26 24 24 26 25 24 26 27 24 22 25 29 29 29 29 29 29 29 29 30 30 32 32 30 27 25 23 21 20 19 18 18 17 18 19 21 22 24 23 23 22 22 23 23 22 20 18 17 17 18 19 19 20 20 23 27 28 28 29 30 28 23
22 22 22 23 24 25 26 25 24 23 22 22 22 24 25 23 22 25 26 25 22 22 24 27 27 27 29 31 27 27 30 33 32 32 32 30 29 30 30 30 30 31 31 31 31 29 26 23 22 20 19 18 17 16 16 16 16 17 18 19 20 21 21 21 22 23 22 21 21 20 18 18 18 17 18 18 17 20 25 26 26 27 27 24 20
24 23 23 24 24 25 25 24 22 20 19 20 21 23 27 28 26 24 23 23 23 21 22 25 27 26 28 31 32 30 32 34 34 32 31 31 32 32 33 32 31 30 30 31 30 27 23 22 22 20 18 18 18 17 16 16 15 16 17 17 18 20 21 21 22 23 22 21 21 21 20 20 20 19 20 20 18 21 25 26 26 26 25 23 22
24 24 25 24 23 22 21 20 18 18 19 20 20 20 23 27 29 27 23 21 22 23 24 24 25 23 23 26 29 31 32 31 32 33 33 33 33 33 33 33 32 30 29 28 29 27 23 21 21 21 19 19 19 18 18 17 17 17 17 16 17 18 20 23 24 25 23 22 21 20 20 21 20 19 20 19 17 18 22 23 24 24 21 20 22
23 24 24 24 23 21 19 18 18 19 19 20 20 19 20 21 24 28 28 25 23 22 21 21 21 22 22 23 26 29 31 31 32 34 34 34 34 34 33 33 32 30 27 25 25 26 23 21 22 22 20 20 20 20 19 19 19 18 18 18 18 19 21 23 24 24 23 23 22 21 20 20 20 17 17 18 17 17 18 19 20 20 18 16 17
22 22 21 22 22 22 21 21 21 21 20 20 20 21 21 20 22 25 27 27 24 21 19 18 19 21 24 26 27 28 30 31 32 33 34 35 34 33 34 34 31 27 24 23 23 24 23 21 21 22 22 22 22 21 21 20 20 20 20 20 21 22 22 22 22 23 23 23 22 21 20 20 20 18 18 18 18 18 19 19 19 19 17 16 18
20 21 21 22 23 23 23 23 23 23 23 23 22 22 21 22 22 22 22 23 24 24 22 20 20 22 24 25 27 28 30 32 33 32 33 34 34 34 34 31 27 23 21 20 21 22 22 22 22 22 22 23 23 23 22 22 21 21 21 21 22 22 22 22 22 23 23 23 22 22 21 21 21 21 20 20 20 19 20 21 22 21 18 18 20
22 23 23 23 23 24 25 25 25 26 26 25 23 22 21 21 21 21 22 22 23 24 25 25 25 24 23 24 26 29 30 31 32 32 33 33 33 32 29 26 23 21 21 20 21 22 23 23 23 23 23 23 24 24 24 23 23 23 23 23 23 23 22 22 22 23 23 23 23 22 22 21 22 22 21 20 21 21 21 22 23 22 21 21 22
24 24 24 24 24 25 27 27 27 26 25 23 22 22 21 21 20 20 21 21 21 23 25 26 26 26 25 24 24 24 26 28 30 31 31 30 28 26 25 24 22 22 21 20 20 21 22 23 24 24 24 24 24 24 24 24 24 24 24 24 24 24 24 24 24 24 24 23 23 23 23 22 23 24 23 21 21 21 21 22 23 21 22 23 22
22 22 23 24 26 27 28 27 25 23 21 20 20 20 20 20 19 19 20 20 21 22 23 24 24 23 23 23 23 23 26 28 27 25 25 24 23 22 23 23 22 21 21 20 20 21 22 23 24 24 25 25 25 25 24 24 25 25 25 25 25 25 25 25 25 24 24 23 23 23 23 23 23 25 25 23 22 21 22 23 23 21 22 24 23
22 24 25 25 25 25 24 22 21 19 18 18 18 18 19 18 18 18 19 20 20 20 20 21 20 19 21 24 26 26 26 24 20 19 20 20 20 20 21 22 23 23 23 23 22 21 21 22 23 23 24 25 26 25 25 25 25 25 25 25 25 24 24 23 23 23 23 24 23 23 23 23 24 25 26 24 23 23 23 24 25 24 23 24 23
24 25 24 22 20 20 19 19 18 18 17 17 17 17 18 18 18 17 18 18 18 17 18 18 18 20 23 25 25 25 23 21 19 19 20 20 21 21 22 22 23 24 23 23 22 22 23 24 24 25 25 26 26 26 26 27 26 26 25 25 24 24 23 23 23 23 23 24 24 23 23 23 23 24 24 24 24 25 25 24 25 26 25 24 24
23 22 20 17 17 18 18 18 17 17 17 17 18 18 18 18 18 17 17 17 17 18 18 19 20 21 22 22 23 24 24 23 21 21 20 20 21 21 21 21 21 22 23 24 26 28 28 27 26 26 26 26 27 27 27 27 27 27 26 25 25 25 24 24 24 24 24 24 24 23 23 24 24 24 24 24 23 24 25 24 25 25 25 25 26
20 19 17 16 17 17 17 17 18 18 18 18 18 18 18 18 17 17 17 17 18 18 18 17 18 19 20 21 23 24 22 21 20 20 19 19 19 20 20 21 21 22 24 26 27 29 29 27 27 28 28 27 27 27 27 27 27 27 27 26 25 24 24 24 24 24 24 23 23 23 23 24 25 25 24 24 24 24 24 25 25 26 26 26 27
19 18 17 17 18 17 18 18 18 18 19 19 18 18 18 17 16 16 17 17 17 17 16 16 17 19 20 21 21 20 19 18 18 18 18 18 19 20 21 21 21 22 23 24 24 25 25 26 28 29 28 26 26 26 26 26 26 26 26 26 25 24 24 24 23 23 23 23 23 23 23 24 24 24 23 24 25 25 25 25 26 26 26 27 28
19 19 19 19 18 18 19 19 19 20 20 20 19 18 17 16 16 15 15 15 15 15 15 16 17 18 19 19 19 18 17 17 17 17 16 16 17 18 19 20 21 22 22 22 22 22 23 24 25 25 25 25 24 24 24 24 24 24 24 24 24 24 24 24 23 23 24 23 22 22 22 23 23 24 24 25 26 26 25 26 26 26 26 27 28
20 21 21 20 20 20 20 19 19 18 18 16 15 15 14 14 14 14 13 14 14 15 15 15 16 17 17 18 18 17 17 17 17 16 16 16 17 17 18 19 19 20 20 20 20 20 20 20 21 22 23 23 22 22 21 21 21 21 21 21 21 22 23 23 23 23 23 23 22 22 23 23 24 24 25 26 27 27 26 27 28 27 27 27 27
19 19 19 19 19 18 17 15 14 13 13 12 12 12 12 12 12 12 12 13 13 13 14 15 15 16 16 17 17 17 17 18 18 17 17 17 17 17 17 18 17 17 18 18 18 18 18 18 19 19 20 20 20 19 19 19 18 18 18 18 19 20 21 21 21 21 21 22 23 23 24 24 24 25 26 27 27 26 26 27 28 28 28 28 28
14 14 14 15 14 13 13 13 12 12 11 11 11 11 11 11 11 12 12 12 12 12 13 14 15 15 15 16 16 17 17 18 18 19 19 18 17 17 17 18 18 18 18 18 18 18 18 18 17 17 17 18 18 17 17 16 16 15 14 14 15 16 17 17 17 17 19 21 22 23 24 24 24 24 25 26 26 25 25 26 27 27 28 28 28
12 12 12 12 12 12 13 13 12 12 12 12 12 12 12 11 12 13 13 14 14 14 14 15 16 16 16 15 15 15 16 16 17 18 18 19 19 19 18 19 19 19 19 19 19 18 18 18 17 17 17 17 17 17 16 15 14 14 13 12 11 11 11 11 12 13 15 17 19 21 23 23 23 24 25 25 25 25 25 25 25 25 26 26 27
10 10 10 11 11 11 12 12 12 13 13 13 13 14 13 13 14 15 15 15 16 16 16 16 17 17 17 17 17 17 16 17 17 17 18 18 19 19 19 19 20 20 21 21 21 20 20 19 18 18 18 18 17 17 17 16 15 14 13 12 10 9 7 6 7 8 10 13 16 18 19 20 21 21 22 23 23 23 24 23 23 24 25 24 25
10 9 9 9 9 10 11 11 11 13 13 12 13 14 14 13 14 15 15 16 17 17 16 17 17 17 18 18 18 18 18 19 19 19 19 19 19 19 19 19 20 20 21 21 22 22 22 21 21 21 20 20 19 18 18 17 17 16 14 12 10 8 5 3 2 4 7 10 13 15 16 18 19 19 19 20 20 21 22 22 22 23 23 23 24
11 10 9 9 8 9 10 10 11 12 13 12 12 13 13 14 14 15 15 16 16 17 17 18 18 18 18 18 18 18 18 19 19 20 21 21 21 21 20 20 20 20 20 20 20 21 21 22 22 22 22 21 21 20 20 19 17 15 13 12 10 8 6 5 3 2 4 8 11 13 16 18 19 19 19 20 21 21 21 21 21 21 21 22 23
Wind_Direction
326 327 327 328 332 337 339 338 335 330 325 321 315 309 304 300 296 292 287 282 278 274 271 269 267 265 263 261 259 258 256 254 252 250 248 247 246 246 246 245 245 246 247 247 247 246 247 247 248 248 248 249 248 248 248 247 247 246 244 244 242 241 240 240 249 264 262 259 260 263 265 262 256 252 251 250 250 248 248 249 252 254 254 254 255
337 333 330 328 329 333 335 334 332 329 327 326 322 319 316 312 308 303 296 291 286 280 276 274 272 269 266 264 262 261 259 257 255 251 248 247 246 246 246 244 244 246 246 247 247 247 247 248 249 250 249 249 249 249 248 247 247 246 244 242 241 240 237 237 243 256 262 258 255 257 259 255 253 254 253 251 250 249 247 247 250 252 253 253 254
342 338 333 331 330 330 330 329 328 328 328 328 326 325 323 320 318 312 306 301 294 287 283 279 276 273 270 268 266 264 263 261 258 255 251 249 248 247 247 245 245 245 245 247 248 248 248 249 250 251 250 250 250 249 248 248 246 246 246 243 242 241 237 235 239 247 259 260 253 250 250 248 249 252 253 252 251 248 246 247 250 252 251 251 253
341 339 334 330 328 326 326 326 326 325 325 325 324 324 322 321 320 318 314 309 303 297 291 285 282 277 273 271 269 268 266 264 262 259 256 253 252 250 249 248 247 247 247 248 249 249 248 249 250 251 250 250 250 250 248 248 246 246 246 245 243 242 240 237 238 242 252 260 255 249 249 248 249 251 249 248 248 247 247 247 248 249 249 250 252
337 335 331 326 323 323 325 324 324 323 322 321 321 320 320 320 320 320 319 315 310 305 299 293 289 284 279 276 274 272 270 268 265 263 260 258 256 254 253 251 250 250 250 250 251 250 250 251 252 252 250 249 250 251 250 249 248 246 245 244 243 243 243 242 241 243 249 256 259 257 254 249 248 247 244 243 246 246 246 247 248 249 250 250 251
334 331 327 324 323 325 326 325 324 323 323 322 321 320 320 320 319 320 320 318 315 311 306 302 297 292 288 284 280 277 275 272 269 267 265 262 260 258 256 254 254 253 253 253 253 253 252 253 254 252 250 250 250 250 250 249 248 246 244 244 242 242 243 243 242 242 245 251 257 258 253 244 240 238 237 238 240 240 241 244 246 248 248 248 247
335 331 329 328 328 330 330 329 327 326 325 324 322 322 322 321 319 318 317 317 317 315 312 309 305 300 296 291 287 283 280 276 273 271 269 266 263 260 258 257 256 256 256 256 255 255 254 254 255 254 252 251 251 252 251 249 247 246 246 246 245 244 244 245 245 246 249 254 257 258 256 248 239 235 236 235 235 238 239 238 241 243 243 243 243
339 337 336 336 337 336 335 333 331 329 327 325 323 323 322 321 319 317 316 315 315 317 316 313 309 305 300 295 292 289 286 281 278 275 273 270 266 263 261 260 259 258 258 258 257 256 256 255 255 255 253 253 253 253 252 250 249 249 248 247 246 245 244 247 249 249 250 253 254 255 255 250 239 236 236 231 227 233 237 234 236 242 244 244 244
343 343 343 344 344 341 337 335 332 331 330 328 327 326 325 324 322 319 318 316 315 316 314 313 311 308 305 301 297 294 291 287 285 282 278 275 271 268 266 263 261 260 260 260 259 258 257 256 256 255 255 255 255 255 254 252 250 250 252 252 248 244 243 244 245 244 245 248 252 252 250 242 232 228 226 221 222 232 237 234 236 244 248 248 246
348 350 350 348 344 341 338 336 336 336 336 335 334 334 332 331 329 327 325 322 320 318 314 311 311 310 309 307 304 301 296 292 289 287 283 281 278 274 270 267 265 263 261 261 260 259 258 257 257 257 257 257 257 257 257 255 253 254 259 257 250 245 244 243 241 240 240 245 247 245 244 241 230 222 222 229 232 236 235 229 234 241 241 244 250
354 355 354 350 346 343 342 340 341 341 342 341 340 339 338 337 336 334 332 330 326 323 319 315 312 311 310 309 307 306 303 300 296 289 284 283 282 280 277 272 268 265 262 260 259 258 259 260 261 261 259 258 258 258 258 257 257 259 261 258 253 250 247 243 241 240 238 243 246 243 238 241 237 227 227 234 236 235 234 231 232 232 224 225 245
355 355 355 353 351 351 347 345 344 343 343 343 342 341 340 339 340 339 336 335 332 329 325 321 317 314 311 308 308 308 307 307 304 297 289 281 278 280 280 279 276 270 265 261 259 259 261 262 262 260 259 258 258 259 258 258 260 262 261 258 255 254 250 245 242 240 237 241 246 244 238 240 241 231 227 233 235 235 236 234 231 227 221 219 226
360 1 2 359 356 354 350 348 348 345 344 342 340 340 340 339 341 340 337 336 335 332 330 326 322 320 316 312 310 309 310 310 308 305 300 291 283 278 276 278 279 277 273 269 266 266 267 269 268 265 263 261 260 260 261 263 267 267 265 262 259 257 255 252 247 244 242 242 244 245 242 239 239 236 234 237 234 229 229 229 228 226 222 223 229
9 8 9 6 1 357 352 350 349 346 344 342 339 339 339 338 340 340 337 336 335 333 331 329 326 323 320 316 313 311 312 314 313 310 307 304 298 289 281 278 276 273 272 272 271 271 272 270 269 268 266 266 265 264 262 262 264 264 263 263 261 260 259 258 254 249 247 245 246 249 248 242 241 243 243 239 234 230 228 228 228 225 222 226 233
13 9 9 8 5 1 355 351 349 346 344 341 339 338 337 337 339 339 336 334 333 331 331 329 327 325 322 319 314 312 315 318 317 314 311 307 305 300 294 289 283 276 272 270 269 270 270 270 268 266 267 268 268 265 260 259 260 261 262 261 260 260 260 259 258 255 252 250 249 251 252 249 246 247 245 240 240 243 241 238 235 229 222 222 223
11 7 6 4 2 1 358 354 351 348 345 342 339 337 336 336 337 338 334 332 331 331 330 328 326 325 324 321 316 314 317 319 316 313 311 308 305 303 300 296 292 286 282 277 273 270 269 271 272 272 273 273 270 266 264 265 265 263 260 260 261 261 261 261 261 260 259 258 255 254 254 252 248 248 247 246 249 248 242 236 232 221 209 203 200
9 4 1 358 356 356 354 351 350 347 345 343 339 337 335 333 335 336 333 330 330 330 329 327 326 324 324 323 320 317 319 323 319 314 313 312 309 305 302 298 294 290 289 286 283 280 276 274 274 275 276 276 275 273 271 271 268 263 260 260 261 262 262 262 263 263 263 262 260 259 257 253 249 249 249 248 251 245 230 218 214 204 192 191 198
4 359 356 353 350 349 348 347 345 343 341 339 336 335 334 332 332 333 330 326 326 327 327 325 325 325 324 324 323 320 322 328 329 323 321 321 315 308 303 299 294 291 290 290 289 287 285 283 280 278 278 279 281 281 278 273 269 264 262 263 264 264 265 265 266 268 267 265 263 260 257 253 249 249 248 248 249 241 226 219 215 201 192 202 197
358 353 350 347 344 343 343 341 341 339 337 335 332 331 331 330 330 330 328 324 322 323 324 323 323 324 324 323 323 322 323 330 336 333 329 328 321 312 306 300 294 292 293 293 293 292 290 289 287 284 283 284 284 285 284 279 272 266 263 263 263 264 266 267 268 269 268 266 263 259 255 252 249 249 250 249 247 242 235 231 221 205 199 203 184
351 347 345 343 341 340 339 338 337 336 334 333 331 329 329 329 329 328 327 325 322 320 321 321 320 322 323 324 324 325 325 328 334 335 331 328 324 316 307 298 292 293 294 294 294 295 294 294 293 290 290 289 288 287 285 281 276 272 268 262 259 264 269 272 271 269 266 265 263 259 255 252 250 249 249 246 242 239 237 233 224 215 209 201 187
345 343 341 340 339 338 337 336 335 334 333 332 328 325 327 328 328 327 326 325 322 319 319 320 319 319 322 323 323 325 327 327 330 334 331 326 322 315 305 299 297 296 295 293 293 294 295 296 297 296 294 293 291 289 287 283 279 275 270 265 265 269 274 274 272 268 265 264 262 259 256 254 253 250 246 241 237 235 233 229 225 222 216 205 197
341 338 337 337 337 337 336 336 334 333 333 333 327 322 323 325 325 325 324 323 321 318 318 319 318 318 320 321 322 324 327 327 327 329 329 326 322 315 305 303 304 302 298 296 295 297 299 300 302 303 302 299 295 292 290 288 283 277 273 272 273 274 274 272 270 265 262 260 259 257 254 252 249 244 239 237 236 233 231 227 224 223 220 215 212
336 333 334 335 335 336 335 334 334 333 332 332 327 322 321 322 322 322 322 320 318 316 315 317 317 316 317 319 320 322 325 327 326 326 327 325 322 318 312 308 309 306 300 298 299 301 303 305 307 307 307 304 300 297 293 290 286 282 279 277 276 275 272 269 264 259 257 256 254 250 249 245 239 235 234 235 234 230 229 226 222 221 220 221 222
331 330 331 332 333 334 334 333 333 333 332 331 327 323 323 323 322 322 321 319 315 311 310 312 313 313 313 314 316 318 322 324 324 324 326 325 322 320 317 312 311 308 302 298 300 302 303 306 308 309 308 306 303 300 295 289 285 283 283 282 279 276 272 266 261 256 252 250 245 242 242 239 233 232 234 233 231 227 223 220 218 218 217 217 219
329 328 329 331 332 332 331 331 331 331 330 329 325 322 321 321 320 319 319 317 312 307 306 309 310 309 308 308 310 314 318 320 321 324 327 328 326 322 316 312 310 308 303 300 300 300 301 304 306 307 308 308 308 305 299 292 286 284 285 285 282 278 273 265 259 251 244 242 240 238 241 240 236 236 236 231 227 222 215 210 208 209 209 208 207
328 328 328 329 330 330 329 329 330 329 327 326 323 319 317 316 314 312 312 310 306 302 302 305 307 306 304 304 306 311 315 317 320 324 328 328 325 321 318 314 312 310 306 304 303 302 302 303 304 304 305 306 307 306 302 297 291 287 286 285 281 277 270 261 253 245 240 242 244 243 245 246 241 236 232 226 221 216 209 202 195 193 197 196 189
328 327 328 328 328 329 328 327 327 326 325 324 321 317 315 313 309 306 306 306 304 301 300 302 304 304 303 304 307 309 311 314 318 323 328 327 323 322 319 316 315 313 309 306 306 305 303 303 302 301 301 303 304 304 303 299 294 287 285 283 281 276 270 259 250 244 242 244 247 249 249 246 235 227 223 219 217 214 208 202 193 188 191 189 176
329 327 327 327 326 326 326 324 323 322 321 320 317 313 311 309 304 301 300 300 299 299 300 301 303 304 303 304 308 308 307 310 317 320 323 322 320 319 318 316 315 312 309 307 307 304 302 301 299 297 297 297 298 299 299 296 292 287 284 281 279 276 272 262 252 246 245 245 246 247 242 230 221 217 214 212 211 209 206 203 198 191 186 182 172
331 328 326 325 324 323 322 321 320 319 317 316 314 309 306 304 301 298 297 296 293 294 295 296 299 302 300 299 302 302 301 304 310 313 315 316 315 315 314 313 313 310 308 309 308 303 299 297 293 291 290 290 290 290 290 288 285 283 280 278 277 273 268 260 252 247 246 244 241 238 228 216 213 209 204 204 206 204 201 200 197 188 183 179 172
330 328 326 323 321 320 319 318 317 317 316 314 314 311 307 304 302 299 298 297 295 293 292 292 296 301 299 296 295 294 295 300 306 309 311 312 312 311 310 309 310 309 310 311 307 300 295 291 288 286 285 284 284 283 283 282 280 277 275 273 271 268 264 259 254 252 250 245 239 234 224 212 207 200 195 198 200 196 195 196 192 184 178 173 163
327 325 322 320 319 318 317 316 315 313 313 312 313 313 311 309 307 303 300 300 299 298 295 293 296 298 296 296 298 298 298 302 306 308 309 309 310 310 308 307 307 308 310 311 304 296 292 288 286 285 283 281 281 280 280 279 275 274 274 269 265 262 259 257 256 255 251 245 238 232 224 215 208 201 198 198 195 190 191 192 188 183 178 172 163
323 320 319 318 318 317 314 313 312 311 312 312 310 309 309 310 310 309 306 303 301 301 300 299 300 302 300 299 302 303 304 306 307 307 307 307 307 307 307 306 305 305 308 306 298 293 291 287 284 285 285 282 281 281 279 276 273 272 270 265 262 258 254 255 259 256 249 244 238 231 224 219 214 209 205 200 192 187 187 187 185 181 177 173 168
320 318 318 317 316 314 312 311 309 307 308 308 306 305 304 305 307 308 309 308 305 304 303 303 305 307 306 304 304 303 304 306 307 307 307 306 306 306 306 305 303 302 302 299 292 290 290 286 283 284 284 282 283 283 279 274 271 269 266 262 260 259 257 259 259 253 245 243 240 233 227 223 217 212 206 198 191 188 188 188 186 180 173 168 165
316 313 313 313 310 309 308 306 304 303 301 300 300 300 298 297 298 302 306 309 311 310 309 307 309 310 309 308 307 306 306 308 309 308 308 307 306 306 305 303 302 300 297 291 285 286 288 285 283 284 284 282 283 282 278 275 271 267 264 262 260 260 260 258 253 247 243 243 239 234 230 224 216 207 200 194 190 188 188 189 188 182 175 169 164
315 311 309 308 305 304 303 303 302 300 298 297 295 293 292 292 293 293 297 301 305 307 308 309 311 311 310 310 310 309 309 310 310 310 310 309 308 306 303 299 298 298 295 289 285 284 285 285 284 284 284 282 281 280 277 274 270 265 263 261 260 259 257 252 246 244 242 239 236 233 229 223 216 209 201 194 190 187 187 189 189 186 180 172 166
313 310 307 305 303 301 300 300 299 297 295 294 291 288 288 289 289 290 290 291 294 298 301 304 307 308 307 308 309 308 308 309 310 310 310 309 309 306 298 292 292 294 292 290 289 287 286 285 285 285 283 280 279 278 276 273 271 267 264 261 259 256 253 248 244 242 240 236 234 232 226 220 214 208 201 197 194 192 190 187 186 185 181 174 169
308 306 304 303 303 302 300 298 297 294 292 290 287 287 287 287 287 289 290 290 291 294 297 303 308 309 308 309 309 308 308 310 310 309 308 309 310 305 295 288 289 289 288 289 290 289 289 289 290 290 288 285 281 280 277 274 273 270 267 264 260 256 253 250 245 241 237 234 232 228 223 219 213 206 201 198 195 193 190 185 183 182 179 173 169
307 304 303 303 303 301 299 297 295 293 290 287 285 287 287 287 288 290 290 291 293 295 297 302 305 305 307 312 316 316 315 313 310 307 306 308 308 304 298 293 292 291 291 293 293 291 290 291 291 291 291 289 287 285 282 278 276 273 270 267 263 259 256 252 248 242 236 233 231 227 221 218 213 207 202 199 195 190 187 183 179 174 171 171 170
309 305 304 303 302 299 297 295 295 294 291 289 288 290 290 290 291 292 291 292 293 293 296 300 302 305 310 314 317 316 313 310 309 308 308 308 307 304 303 301 300 299 299 299 300 299 297 298 298 298 296 294 292 289 287 283 280 276 273 269 266 262 257 251 245 240 234 231 229 226 220 216 211 206 203 201 195 189 184 180 177 173 170 171 172
309 307 306 304 300 297 295 294 293 292 292 292 293 294 293 293 293 291 291 293 294 296 301 304 305 307 309 310 312 315 314 313 313 312 311 311 310 307 305 304 303 304 305 307 310 311 309 308 307 305 302 299 297 294 291 287 284 280 276 271 267 263 258 252 245 240 235 231 228 223 218 214 209 203 201 200 196 189 183 179 177 174 170 169 167
311 309 305 302 299 298 297 295 293 293 295 295 295 295 293 292 292 293 295 298 301 303 304 302 301 305 308 311 317 320 318 313 311 310 308 308 308 308 310 312 312 313 314 314 314 313 310 308 305 303 301 298 296 295 293 290 287 283 278 274 268 263 259 254 248 242 237 232 227 221 216 211 204 199 198 196 192 187 182 177 175 172 168 165 162
313 308 303 301 300 298 295 294 294 295 296 295 294 293 292 290 292 296 300 303 303 303 302 302 306 313 317 319 322 321 316 310 308 309 310 312 315 317 319 318 316 315 314 313 313 312 310 307 305 304 302 299 296 295 294 291 288 285 280 275 270 264 259 255 249 243 238 233 226 220 214 208 202 198 195 190 184 180 177 174 171 168 164 162 160
310 305 302 300 297 294 292 293 293 293 293 292 291 292 294 295 298 303 305 306 307 308 311 316 320 321 321 321 323 323 319 316 316 316 317 319 322 323 322 319 318 317 317 317 317 316 314 311 309 308 306 302 300 299 297 294 291 288 283 277 271 265 260 256 250 242 236 230 224 218 210 204 198 194 189 184 179 176 173 171 168 166 163 160 159
310 307 304 300 296 293 294 294 292 289 289 289 290 294 300 306 309 312 313 314 317 319 321 322 323 323 322 324 326 325 322 321 321 321 322 324 325 325 326 326 326 326 326 325 324 322 321 320 318 315 313 310 307 304 301 297 295 292 288 282 276 269 263 257 251 244 236 228 220 212 204 198 194 189 184 181 177 173 171 169 167 164 162 160 158
312 309 306 302 300 299 299 298 297 296 297 299 303 307 312 315 318 321 323 324 323 324 324 325 326 327 326 327 327 326 324 324 325 325 325 327 329 330 333 335 335 335 335 334 333 332 331 329 327 325 322 320 318 314 310 306 301 296 292 287 281 275 269 262 257 249 239 227 216 207 199 194 190 186 182 180 177 174 172 170 168 164 162 161 161
314 311 308 306 306 307 307 309 311 314 317 320 321 323 325 328 331 334 334 333 331 330 329 331 331 331 330 329 329 328 328 328 328 329 331 333 336 338 342 345 345 344 343 342 341 341 341 339 338 337 334 332 330 327 323 318 311 304 299 293 287 282 277 271 264 255 241 229 217 206 198 192 188 186 183 180 178 176 173 170 168 166 165 164 162
322 318 315 314 316 319 321 324 328 331 333 334 334 335 337 339 342 342 340 339 338 335 333 334 336 336 336 335 334 335 336 335 336 337 340 343 346 349 352 354 354 352 353 354 353 352 351 350 350 349 347 345 343 341 337 333 329 323 316 308 299 292 285 279 270 257 242 230 218 207 197 190 185 183 181 177 175 173 171 170 169 167 165 163 161
337 331 330 330 330 331 332 334 337 340 341 342 344 345 343 342 345 346 344 343 343 340 338 340 341 339 339 339 339 341 345 347 349 351 352 355 358 359 1 3 5 4 6 8 9 8 8 6 4 3 1 359 358 357 354 353 351 347 344 338 326 312 298 284 269 252 236 224 214 204 195 187 182 179 177 175 173 171 169 167 166 164 162 160 159
342 342 342 341 339 340 340 340 341 343 344 343 345 348 349 347 348 349 347 346 348 347 345 344 343 342 343 343 343 345 348 351 355 359 2 4 7 8 9 9 11 11 13 14 16 19 21 21 20 19 17 13 11 9 8 7 7 7 5 2 353 339 319 293 265 242 224 211 201 193 186 180 174 172 171 170 168 166 164 162 161 160 158 156 155
342 345 348 348 349 349 348 346 347 350 350 348 346 348 349 347 348 350 350 348 349 350 349 348 348 349 351 350 349 349 350 352 354 357 0 3 6 10 12 14 16 17 17 17 18 19 21 23 25 26 27 27 27 26 23 21 18 15 11 8 6 3 357 342 262 214 201 192 185 179 175 169 163 160 160 159 158 157 156 155 155 155 153 151 151
343 345 348 352 356 356 356 355 354 355 356 353 349 349 350 348 348 351 353 352 351 351 352 353 355 356 357 357 357 356 356 356 357 360 2 4 6 8 10 13 16 18 20 21 22 21 21 21 22 23 25 27 30 32 33 32 30 26 22 19 18 20 24 30 51 115 158 168 167 165 162 159 154 151 151 151 150 148 147 147 148 148 148 148 149